Waarnemingen

Advertentie
Mijn weer
Pau, Frankrijk (7610): temperatuur & dauwpunt: 16.02.2017 11:00:00 - 22.02.2017 11:00:00 (CET)Pau, Frankrijk (7610): temperatuur 5cm: 16.02.2017 11:00:00 - 22.02.2017 11:00:00 (CET)Pau, Frankrijk (7610): temperatuur -20cm & temperatuur -100cm: 16.02.2017 11:00:00 - 22.02.2017 11:00:00 (CET)Pau, Frankrijk (7610): windsnelheid & windstoten: 16.02.2017 11:00:00 - 22.02.2017 11:00:00 (CET)Pau, Frankrijk (7610): windrichting: 16.02.2017 11:00:00 - 22.02.2017 11:00:00 (CET)Pau, Frankrijk (7610): luchtdruk: 16.02.2017 11:00:00 - 22.02.2017 11:00:00 (CET)Pau, Frankrijk (7610): zicht: 16.02.2017 11:00:00 - 22.02.2017 11:00:00 (CET)Pau, Frankrijk (7610): Zonneschijnduur: 16.02.2017 11:00:00 - 22.02.2017 11:00:00 (CET)Pau, Frankrijk (7610): neerslag: 16.02.2017 11:00:00 - 22.02.2017 11:00:00 (CET)
Datum & Tijd tt [°C] td [°C] tt 5cm [°C] tt -20cm [°C] tt -100cm [°C] ff [km/u] ff [kn] fx [km/u] fx [kn] dd ppp [hPa] vv [km] sd [min] rr [mm]
22.02.2017 11:00:00 7,6 7,2 8,0 9,4 9,9 4 2 6 4 N 1024,4 0,5 0 0,0
22.02.2017 10:00:00 6,4 5,8 5,3 9,5 9,9 2 1 7 4 ONO 1024,6 0,2 0 0,0
22.02.2017 09:00:00 3,1 2,7 -1,6 9,6 9,9 4 2 8 4 ONO 1025,0 2,8 43 0,0
22.02.2017 08:00:00 1,2 0,3 -2,4 9,6 9,9 4 2 5 3 ONO 1024,7 0,9 0 0,0
22.02.2017 07:00:00 1,9 1,0 -1,9 9,7 9,9 2 1 5 3 ZO 1024,6 0,6 0 0,0
22.02.2017 06:00:00 2,3 1,4 -1,5 9,8 9,9 5 3 7 4 OZO 1024,8 1,8 0 0,0
22.02.2017 05:00:00 3,0 2,0 -0,3 9,8 9,9 3 1 10 6 O 1024,8 3,3 0 0,0
22.02.2017 04:00:00 3,6 2,7 -0,2 9,9 9,9 8 4 9 5 OZO 1025,2 2,8 0 0,0
22.02.2017 03:00:00 3,9 3,0 -0,1 10,0 9,9 6 3 6 4 ZO 1026,0 4,2 0 0,0
22.02.2017 02:00:00 3,8 2,6 -0,5 10,0 9,9 3 2 5 3 OZO 1026,2 2,6 0 0,0
22.02.2017 01:00:00 4,2 2,9 0,3 10,0 9,8 0 0 5 3 N 1026,1 2,0 0 0,0
22.02.2017 00:00:00 4,9 3,4 -0,1 10,1 9,9 4 2 5 3 ZZO 1026,0 7 0 0,0
21.02.2017 23:00:00 6,3 4,8 2,1 10,1 9,9 0 0 14 8 N 1026,1 9 0 0,0
21.02.2017 22:00:00 6,6 4,4 1,3 10,1 9,9 0 0 6 3 N 1025,9 12 0 0,0
21.02.2017 21:00:00 8,4 5,3 1,8 10,0 9,8 3 2 5 3 ZZO 1025,8 16 0 0,0
21.02.2017 20:00:00 9,5 5,9 4,3 9,9 9,8 4 2 8 4 NNO 1025,6 19 0 0,0
21.02.2017 19:00:00 10,1 5,7 4,3 9,8 9,8 6 3 9 5 N 1025,3 10 5 0,0
21.02.2017 18:00:00 13,0 6,6 12,5 9,7 9,8 6 4 12 6 N 1024,9 32 55 0,0
21.02.2017 17:00:00 14,7 6,3 18,9 9,6 9,8 7 4 16 9 N 1024,9 20 60 0,0
21.02.2017 16:00:00 14,8 5,8 20,3 9,5 9,8 6 3 18 10 N 1025,1 28 60 0,0
21.02.2017 15:00:00 14,8 6,9 21,0 9,5 9,8 3 1 14 8 WNW 1025,6 20 60 0,0
21.02.2017 14:00:00 14,8 6,6 21,5 9,4 9,8 4 2 12 7 NO 1026,4 19 60 0,0
21.02.2017 13:00:00 13,6 5,5 19,0 9,4 9,8 5 3 17 9 ONO 1027,5 19 60 0,0
21.02.2017 12:00:00 12,2 5,8 19,3 9,5 9,8 5 3 12 6 NNW 1028,0 17 60 0,0
21.02.2017 11:00:00 11,5 4,9 14,1 9,5 9,8 3 2 7 4 ZZO 1028,2 15 60 0,0
21.02.2017 10:00:00 8,1 4,5 7,1 9,6 9,8 5 3 11 6 ZO 1028,7 10 60 0,0
21.02.2017 09:00:00 4,8 2,8 -1,0 9,7 9,8 6 3 15 8 OZO 1028,9 8 51 0,0
21.02.2017 08:00:00 2,2 0,7 -1,1 9,7 9,8 4 2 8 4 ZZO 1028,5 4,8 0 0,0
21.02.2017 07:00:00 2,6 1,1 -0,8 9,8 9,8 5 3 11 6 ZO 1028,1 6 0 0,0
21.02.2017 06:00:00 2,9 1,7 -0,3 9,8 9,8 5 3 10 5 OZO 1028,1 6 0 0,0
21.02.2017 05:00:00 3,5 2,5 -0,2 9,9 9,8 6 3 8 4 ZO 1028,1 4,7 0 0,0
21.02.2017 04:00:00 3,6 2,4 0,1 9,9 9,8 4 2 6 4 ZO 1028,8 3,5 0 0,0
21.02.2017 03:00:00 3,9 2,9 -0,2 10,0 9,8 4 2 5 3 NO 1029,0 2,5 0 0,0
21.02.2017 02:00:00 4,6 3,3 0,5 10,0 9,8 5 3 10 5 NNW 1029,2 6 0 0,0
21.02.2017 01:00:00 6,4 3,9 1,9 10,1 9,8 8 4 9 5 OZO 1028,9 12 0 0,0
21.02.2017 00:00:00 8,2 4,6 5,3 10,1 9,8 5 3 8 4 ZO 1028,8 14 0 0,0
20.02.2017 23:00:00 7,6 4,2 3,2 10,1 9,8 6 3 10 6 ZZO 1029,2 15 0 0,0
20.02.2017 22:00:00 8,4 4,4 5,3 10,1 9,8 4 2 6 3 OZO 1029,3 16 0 0,0
20.02.2017 21:00:00 7,9 4,5 3,2 10,1 9,8 4 2 7 4 O 1029,2 13 0 0,0
20.02.2017 20:00:00 7,2 3,8 1,4 10,1 9,8 4 2 7 4 ONO 1028,9 20 0 0,0
20.02.2017 19:00:00 8,8 3,8 3,2 10,0 9,8 5 3 11 6 N 1028,3 28 19 0,0
20.02.2017 18:00:00 11,3 5,0 12,4 10,0 9,7 7 4 16 9 NNW 1027,9 33 60 0,0
20.02.2017 17:00:00 12,3 5,2 12,5 9,9 9,7 9 5 14 8 N 1027,6 7 52 0,0
20.02.2017 16:00:00 12,7 5,4 14,9 9,9 9,8 8 4 15 8 N 1027,9 20 45 0,0
20.02.2017 15:00:00 12,3 5,9 13,6 9,8 9,7 7 4 17 9 N 1028,3 25 4 0,0
20.02.2017 14:00:00 11,4 6,1 13,5 9,8 9,7 9 5 14 8 NNW 1029,1 19 0 0,0
20.02.2017 13:00:00 11,8 5,0 14,9 9,8 9,7 3 2 9 5 NO 1029,4 24 0 0,0
20.02.2017 12:00:00 11,1 7,0 12,7 9,8 9,7 3 2 7 4 NW 1029,8 12 0 0,0
20.02.2017 11:00:00 10,2 7,4 11,1 9,8 9,7 2 1 5 3 NNW 1029,7 9 0 0,0
20.02.2017 10:00:00 9,3 7,4 9,4 9,9 9,7 0 0 6 3 N 1029,7 7 0 0,0
20.02.2017 09:00:00 8,6 7,1 7,5 9,9 9,7 0 0 4 2 N 1029,5 5 0 0,0
20.02.2017 08:00:00 8,3 6,9 7,2 9,9 9,7 3 2 6 3 OZO 1029,2 4,7 0 0,0
20.02.2017 07:00:00 8,4 7,2 6,9 9,9 9,7 3 2 5 3 NO 1028,9 6 0 0,0
20.02.2017 06:00:00 7,9 6,8 7,2 10,0 9,7 3 1 5 3 O 1028,8 3,9 0 0,0
20.02.2017 05:00:00 8,0 6,8 5,5 10,0 9,7 4 2 11 6 Z 1028,8 5 0 0,0
20.02.2017 04:00:00 8,2 7,0 7,0 10,0 9,7 3 2 4 2 N 1029,1 3,5 0 0,0
20.02.2017 03:00:00 8,7 7,3 8,2 10,0 9,7 0 0 9 5 N 1029,6 6 0 0,0
20.02.2017 02:00:00 8,8 7,2 8,1 10,1 9,7 2 1 3 1 OZO 1029,6 6 0 0,0
20.02.2017 01:00:00 8,8 7,4 8,2 10,1 9,7 0 0 6 3 N 1029,9 7 0 0,0
20.02.2017 00:00:00 8,5 7,4 7,1 10,1 9,7 5 3 9 5 W 1030,1 7 0 0,0
19.02.2017 23:00:00 7,4 6,3 4,4 10,1 9,7 2 1 12 6 OZO 1030,2 4,8 0 0,0
19.02.2017 22:00:00 7,5 6,1 3,4 10,1 9,7 7 4 12 7 W 1029,5 9 0 0,0
19.02.2017 21:00:00 8,5 6,8 5,8 10,0 9,7 10 5 22 12 WNW 1029,1 11 0 0,0
19.02.2017 20:00:00 9,8 6,9 8,3 9,9 9,7 18 10 28 15 WNW 1028,5 16 0 0,0
19.02.2017 19:00:00 11,7 7,8 6,9 9,9 9,7 11 6 16 9 W 1027,8 20 0 0,0
19.02.2017 18:00:00 12,7 7,6 12,4 9,8 9,6 7 4 14 7 N 1027,4 20 0 0,0
19.02.2017 17:00:00 13,8 8,4 13,9 9,7 9,7 7 4 16 9 N 1027,2 20 20 0,0
19.02.2017 16:00:00 14,8 8,3 13,9 9,6 9,7 6 4 20 11 WNW 1027,2 26 37 0,0
19.02.2017 15:00:00 14,4 8,6 15,9 9,6 9,7 11 6 22 12 NW 1027,4 28 53 0,0
19.02.2017 14:00:00 13,4 7,8 15,2 9,5 9,7 14 7 27 14 NW 1027,8 12 43 0,0
19.02.2017 13:00:00 13,1 8,2 15,0 9,5 9,7 12 6 21 11 NW 1028,2 11 46 0,0
19.02.2017 12:00:00 12,9 8,8 15,0 9,5 9,7 10 5 19 11 NW 1028,7 3,7 45 0,0
19.02.2017 11:00:00 12,1 7,8 15,9 9,5 9,7 6 4 13 7 WZW 1028,5 13 55 0,0
19.02.2017 10:00:00 10,6 7,3 8,0 9,6 9,7 5 3 11 6 Z 1028,2 11 39 0,0
19.02.2017 09:00:00 7,9 6,0 7,3 9,6 9,7 4 2 6 3 ZW 1027,9 4,4 5 0,0
19.02.2017 08:00:00 8,6 6,7 7,4 9,6 9,7 4 2 7 4 ZW 1027,2 6 0 0,0
19.02.2017 07:00:00 8,9 6,9 8,1 9,6 9,7 4 2 8 5 ZW 1026,6 6 0 0,0
19.02.2017 06:00:00 8,9 6,9 8,1 9,6 9,7 4 2 6 3 W 1026,0 6 0 0,0
19.02.2017 05:00:00 8,9 7,2 8,1 9,6 9,6 2 1 9 5 WZW 1025,3 7 0 0,0
19.02.2017 04:00:00 9,1 7,2 8,2 9,6 9,6 4 2 8 4 WNW 1024,9 7 0 0,0
19.02.2017 03:00:00 9,2 7,3 8,2 9,6 9,6 3 2 8 4 WZW 1024,6 7 0 0,0
19.02.2017 02:00:00 9,3 7,4 8,6 9,6 9,6 4 2 6 3 WZW 1024,3 7 0 0,0
19.02.2017 01:00:00 9,4 7,7 8,9 9,6 9,6 4 2 7 4 ZW 1024,2 6 0 0,0
19.02.2017 00:00:00 9,4 7,7 8,8 9,7 9,7 3 2 11 6 ZW 1024,0 6 0 0,0
18.02.2017 23:00:00 9,2 8,0 6,1 9,6 9,6 5 3 13 7 W 1023,7 3,7 0 0,0
18.02.2017 22:00:00 8,1 7,0 4,3 9,6 9,6 7 4 15 8 WNW 1023,4 2,8 0 0,0
18.02.2017 21:00:00 8,6 7,1 5,9 9,6 9,6 13 7 20 11 WNW 1022,8 4,1 0 0,0
18.02.2017 20:00:00 9,6 6,5 3,7 9,5 9,6 15 8 22 12 WNW 1022,0 11 0 0,0
18.02.2017 19:00:00 12,0 3,2 4,2 9,4 9,6 4 2 11 6 NNO 1020,8 18 1 0,0
18.02.2017 18:00:00 14,7 4,4 13,9 9,3 9,6 10 5 17 9 NNO 1020,2 42 60 0,0
18.02.2017 17:00:00 16,4 5,4 19,1 9,1 9,6 11 6 16 9 N 1019,5 19 60 0,0
18.02.2017 16:00:00 17,4 5,3 21,1 9,0 9,6 9 5 19 11 N 1019,5 19 60 0,0
18.02.2017 15:00:00 17,8 5,0 22,9 9,0 9,6 10 5 21 11 NW 1019,5 20 60 0,0
18.02.2017 14:00:00 17,4 4,0 24,0 8,9 9,6 6 4 10 6 WNW 1020,1 17 60 0,0
18.02.2017 13:00:00 16,6 4,3 23,8 8,9 9,6 3 2 8 5 WZW 1020,9 12 60 0,0
18.02.2017 12:00:00 15,5 4,2 20,2 9,0 9,6 0 0 6 4 N 1021,7 8 60 0,0
18.02.2017 11:00:00 13,1 4,0 15,1 9,0 9,6 4 2 10 5 ZO 1022,0 13 60 0,0
18.02.2017 10:00:00 9,4 3,1 9,4 9,1 9,6 7 4 10 6 ZO 1022,2 14 57 0,0
18.02.2017 09:00:00 4,4 0,5 -1,6 9,1 9,6 6 4 10 5 OZO 1022,8 14 38 0,0
18.02.2017 08:00:00 2,7 -0,4 -1,5 9,3 9,6 8 4 9 5 ZO 1022,6 12 0 0,0
18.02.2017 07:00:00 2,9 0,1 -1,5 9,3 9,6 7 4 9 5 ZO 1022,7 11 0 0,0
18.02.2017 06:00:00 3,9 0,2 -0,1 9,4 9,6 6 4 11 6 ZO 1022,8 10 0 0,0
18.02.2017 05:00:00 3,4 0,6 -1,2 9,4 9,6 7 4 9 5 OZO 1023,2 11 0 0,0
18.02.2017 04:00:00 4,1 1,0 -0,3 9,5 9,6 6 4 9 5 OZO 1023,6 11 0 0,0
18.02.2017 03:00:00 4,9 0,8 0,0 9,5 9,6 7 4 9 5 ZO 1024,1 11 0 0,0
18.02.2017 02:00:00 5,7 1,6 0,4 9,6 9,6 5 3 6 4 OZO 1024,4 12 0 0,0
18.02.2017 01:00:00 6,0 2,5 0,0 9,6 9,6 3 2 9 5 ZZO 1024,8 14 0 0,0
18.02.2017 00:00:00 7,3 2,8 1,9 9,6 9,6 8 4 10 5 ZO 1025,0 17 0 0,0
17.02.2017 23:00:00 6,2 2,6 2,0 9,6 9,6 5 3 7 4 O 1025,5 20 0 0,0
17.02.2017 22:00:00 8,3 3,1 2,7 9,6 9,6 6 3 9 5 ZO 1025,5 29 0 0,0
17.02.2017 21:00:00 8,8 3,6 2,4 9,5 9,6 5 3 6 3 ZO 1025,5 30 0 0,0
17.02.2017 20:00:00 10,5 3,3 3,1 9,4 9,6 3 2 6 4 NNO 1025,4 49 0 0,0
17.02.2017 19:00:00 13,2 3,8 6,5 9,3 9,5 5 3 10 5 NO 1025,0 57 22 0,0
17.02.2017 18:00:00 15,6 4,6 16,3 9,2 9,5 8 4 13 7 NO 1024,7 59 60 0,0
17.02.2017 17:00:00 17,4 4,3 20,9 9,1 9,5 7 4 16 9 NNO 1024,8 20 60 0,0
17.02.2017 16:00:00 18,2 5,4 23,2 9,0 9,5 8 5 16 8 NNO 1025,0 55 60 0,0
17.02.2017 15:00:00 18,2 4,0 23,4 8,9 9,5 7 4 15 8 N 1025,7 28 60 0,0
17.02.2017 14:00:00 17,4 6,0 23,5 8,9 9,5 8 4 16 9 NNW 1026,5 18 60 0,0
17.02.2017 13:00:00 16,0 5,9 22,8 8,9 9,6 7 4 11 6 WNW 1027,4 15 60 0,0
17.02.2017 12:00:00 15,7 5,3 21,5 8,9 9,5 2 1 7 4 NNW 1028,0 18 60 0,0
17.02.2017 11:00:00 13,2 4,6 16,0 9,0 9,5 0 0 9 5 N 1028,5 19 60 0,0
17.02.2017 10:00:00 9,8 3,5 9,8 9,0 9,5 7 4 11 6 ZO 1028,7 29 56 0,0
17.02.2017 09:00:00 5,5 1,0 0,3 9,1 9,5 8 4 13 7 ZO 1029,2 20 46 0,0
17.02.2017 08:00:00 3,2 0,3 -0,8 9,2 9,5 8 5 11 6 ZO 1029,2 24 0 0,0
17.02.2017 07:00:00 3,0 0,1 0,0 9,2 9,5 7 4 10 5 ZO 1029,2 26 0 0,0
17.02.2017 06:00:00 3,8 0,7 -0,1 9,3 9,5 6 4 10 6 OZO 1029,3 21 0 0,0
17.02.2017 05:00:00 3,3 0,7 -0,7 9,4 9,5 9 5 10 5 ZO 1029,4 18 0 0,0
17.02.2017 04:00:00 3,5 1,0 -0,8 9,4 9,5 7 4 8 4 ZO 1029,6 16 0 0,0
17.02.2017 03:00:00 4,1 1,3 -0,4 9,5 9,5 7 4 8 5 ZO 1029,8 17 0 0,0
17.02.2017 02:00:00 4,7 1,7 0,0 9,5 9,5 6 3 9 5 ZO 1030,0 18 0 0,0
17.02.2017 01:00:00 5,0 2,7 0,7 9,6 9,5 4 2 6 3 ZO 1030,4 19 0 0,0
17.02.2017 00:00:00 5,7 2,9 0,7 9,6 9,5 4 2 9 5 ZO 1030,5 22 0 0,0
16.02.2017 23:00:00 6,7 4,2 2,1 9,6 9,5 6 4 8 5 O 1030,7 19 0 0,0
16.02.2017 22:00:00 6,7 4,0 1,9 9,5 9,5 4 2 9 5 ZZO 1030,8 28 0 0,0
16.02.2017 21:00:00 8,2 5,1 3,0 9,5 9,5 3 2 5 3 O 1030,7 20 0 0,0
16.02.2017 20:00:00 9,6 5,2 2,5 9,4 9,5 0 0 7 4 N 1030,7 25 0 0,0
16.02.2017 19:00:00 12,9 5,6 6,6 9,3 9,5 6 4 9 5 NO 1029,8 60 13 0,0
16.02.2017 18:00:00 15,9 6,0 15,9 9,2 9,5 6 3 14 7 NO 1029,2 59 60 0,0
16.02.2017 17:00:00 17,0 6,2 18,3 9,1 9,5 9 5 16 9 NNO 1029,0 52 60 0,0
16.02.2017 16:00:00 17,0 5,3 18,6 9,0 9,4 8 4 18 10 NO 1029,2 56 60 0,0
16.02.2017 15:00:00 17,9 6,1 22,9 8,9 9,5 9 5 19 10 ONO 1029,4 60 60 0,0
16.02.2017 14:00:00 17,3 6,5 22,7 8,9 9,5 10 5 16 9 NNO 1030,1 16 60 0,0
16.02.2017 13:00:00 16,3 6,4 23,6 8,9 9,5 5 3 10 5 NNW 1030,9 36 60 0,0
16.02.2017 12:00:00 14,3 5,6 15,7 9,0 9,5 0 0 6 4 N 1031,7 20 60 0,0
16.02.2017 11:00:00 11,8 3,5 10,9 9,0 9,4 4 2 8 5 ZO 1031,9 53 41 0,0

tt = temperatuur
td = dauwpunt
tt 5cm = temperatuur 5cm
tt -20cm = temperatuur -20cm
tt -100cm = temperatuur -100cm
ff = windsnelheid
fx = windstoten
dd = windrichting
ppp = luchtdruk
vv = zicht
sd = Zonneschijnduur
rr = neerslag

Weerstations in de omgeving